Weather Service Report


919 
FPUS83 KFGF 010431
OPUFGF
PRAIRIE TO PINES WEATHER ROUNDUP
NATIONAL WEATHER SERVICE EASTERN NORTH DAKOTA/GRAND FORKS ND
1100 PM CDT THU JUL 31 2014

 **SATELLITE DATA USED TO AUGMENT SKY COVER AT AUTOMATED STATIONS**
 *****  WEATHER ACROSS EASTERN NORTH DAKOTA  *****
  
CITY           SKY/WX    TMP DP  RH WIND       PRES   REMARKS
GRAND FORKS    CLEAR     65  63  93 NW5       29.99R                  
GRAND FORKS AF CLEAR     65  65  99 NW2       30.01R                  
GRAND CITY NWS   N/A     68 N/A N/A MISG        N/A                   
BUXTON           N/A     71  68  90 CALM        N/A                   
DEVILS LAKE    PTCLDY    66  59  77 CALM      30.03R                  
FARGO          CLEAR     69  62  78 CALM      30.00R                  
WAHPETON ARPT  CLEAR     64  59  82 CALM      30.02R                  
$$

 *****  WEATHER ACROSS CENTRAL AND WESTERN NORTH DAKOTA  *****
  
CITY           SKY/WX    TMP DP  RH WIND       PRES   REMARKS
JAMESTOWN      CLEAR     64  61  90 NE3       30.04R                  
BISMARCK       PTCLDY    69  56  62 CALM      30.04R                  
MINOT          CLEAR     63  56  78 CALM      30.04R                  
MINOT AFB      CLEAR     63  62  97 CALM      30.04R                  
GARRISON         N/A     66  57  72 CALM      30.05R                  
WILLISTON      CLEAR     72  59  63 E6        30.03R                  
DICKINSON      CLEAR     66  57  72 SE9       30.04R                  
HETTINGER      CLEAR     67  54  63 E7        30.07R                  
$$

 *****  OTHER OBSERVATIONS NORTHEAST NORTH DAKOTA  *****
  
CITY           SKY/WX    TMP DP  RH WIND       PRES   REMARKS
WALHALLA         N/A     63  63 100 CALM        N/A                   
LANGDON        FAIR      64  59  82 NE5       30.06S                  
CAVALIER       FAIR      66  59  77 NW3       30.03R                  
GRAFTON        FAIR      66  63  88 N3        30.01R                  
CANDO          FAIR      64  63  94 N5        30.05R                  
FORT TOTTEN    NOT AVBL                                               
ROLLA          FAIR      59  59 100 NW6       30.08S                  
RUGBY          FAIR      63  61  94 E5        30.04S                  
 ***** THE ABOVE OBSERVATIONS ARE NON NWS ARE NOT QUALITY
        CONTROLLED AND MAY MIS-REPORT RAIN FOR SNOW...
$$

 *****  OTHER OBSERVATIONS SOUTHEAST NORTH DAKOTA *****
  
CITY           SKY/WX    TMP DP  RH WIND       PRES   REMARKS
COOPERSTOWN    NOT AVBL                                               
VALLEY CITY    FAIR      64  63  94 CALM      30.04S                  
OAKES          NOT AVBL                                               
GWINNER          N/A     66  63  88 W6        30.04S                  
SHEYENNE NWR     N/A     62  60  92 SE2       29.95S                  
BUFFALO          N/A     68  58  69 W2          N/A                   
WYNDMERE       NOT AVBL                                               
 ***** THE ABOVE OBSERVATIONS ARE NON NWS ARE NOT QUALITY
       CONTROLLED AND MAY MIS-REPORT RAIN FOR SNOW...
$$

  *****  WEATHER ACROSS NORTHERN MINNESOTA  *****     
  
CITY           SKY/WX    TMP DP  RH WIND       PRES   REMARKS
FLAG ISLAND    CLEAR     70  64  83 CALM      29.98S                  
WARROAD        CLEAR     63  57  82 CALM      30.00S                  
ROSEAU           N/A     64  55  72 CALM      30.00S                  
HALLOCK        CLEAR     64  61  88 CALM      30.01R                  
THF RVR FALLS  MOCLDY    66  61  82 CALM      30.01S                  
HALSTAD          N/A     66  63  90 S2          N/A                   
FOSSTON        CLEAR     59  55  88 CALM      30.03R FOG              
BAUDETTE       CLEAR     61  59  93 CALM      30.00S                  
WASKISH        CLEAR     61  57  88 CALM      30.00S                  
CROOKSTON      CLEAR     66  64  94 CALM      30.01R                  
$$
  *****  WEATHER ACROSS CENTRAL AND WEST MINNESOTA  *****     
  
CITY           SKY/WX    TMP DP  RH WIND       PRES   REMARKS
BEMIDJI        CLEAR     58  57  94 CALM      30.02R                  
PARK RAPIDS    CLEAR     62  59  90 W5        30.03R                  
WADENA         CLEAR     61  57  88 CALM      30.03R                  
DETROIT LAKES  CLEAR     64  63  94 CALM      30.04S                  
MOORHEAD       CLEAR     70  64  83 CALM      30.02R                  
FERGUS FALLS   CLEAR     70  57  64 CALM      30.02R                  
ELBOW LAKE     FAIR      67  62  84 CALM      30.03R                  
MORRIS MN      CLEAR     63  61  94 W3        30.03R                  
STAPLES        NOT AVBL                                               
WHEATON        CLEAR     63  57  82 CALM      30.04S                  
$$
  *****  WEATHER ELSEWHERE ACROSS MINNESOTA  *****     
  
CITY           SKY/WX    TMP DP  RH WIND       PRES   REMARKS
DULUTH         CLEAR     62  57  83 CALM      30.00R                  
INTRNTL FALLS  CLEAR     54  53  97 CALM      29.99S                  
ELY            CLEAR     54  52  94 CALM      30.01S                  
CLOQUET        CLEAR     61  57  88 CALM      30.00S                  
BRAINERD       CLEAR     64  61  90 CALM      30.02R                  
HIBBING        CLEAR     57  55  93 CALM      30.00S                  
ALEXANDRIA     CLEAR     67  61  81 W3        30.05R                  
SAINT CLOUD    CLEAR     66  58  75 CALM      30.01R                  
MINNEAPOLIS    CLEAR     74  58  57 SW3       30.01S                  
$$

  *****  WEATHER ACROSS SOUTH DAKOTA  *****
  
CITY           SKY/WX    TMP DP  RH WIND       PRES   REMARKS
SIOUX FALLS    CLEAR     61  59  93 CALM      30.06R                  
BROOKINGS      NOT AVBL                                               
WATERTOWN      CLEAR     64  55  72 CALM      30.07R                  
HURON          CLEAR     64  57  78 CALM      30.05R                  
SISSETON         N/A     63  60  90 SW3       30.02S                  
ABERDEEN       CLEAR     59  56  89 S3        30.04S                  
MITCHELL       CLEAR     67  60  78 SE7       30.06R                  
PIERRE         CLEAR     67  59  75 E6        30.04R                  
MOBRIDGE       CLEAR     68  57  68 SE8       30.02R                  
RAPID CITY     MOCLDY    66  52  60 E5        30.13F                  
$$

  *****  SOME WEATHER IN NEARBY STATES *****
  
CITY           SKY/WX    TMP DP  RH WIND       PRES   REMARKS
GLASGOW MT     MOCLDY    78  47  33 NW6       30.00R                  
GREAT FALLS MT PTCLDY    69  44  40 CALM      30.12R                  
CHEYENNE WY    PTCLDY    61  50  67 SW8       30.31R                  
SCOTTSBLUFF NE PTCLDY    68  49  50 SE7       30.19R                  
OMAHA NE       MOCLDY    72  59  63 SE7       30.05R                  
DES MOINES IA  PTCLDY    70  62  76 NE3       30.05R                  
DAVENPORT IA   PTCLDY    63  60  90 CALM      30.06S                  
CHICAGO IL     CLEAR     71  57  61 SW5       30.04S                  
EAU CLAIRE WI  MOCLDY    68  61  78 SW6       30.00R                  
LA CROSSE WI   CLEAR     67  62  84 SE6       30.01R                  
$$

  *****  SOME NATIONAL WEATHER *****
  
CITY           SKY/WX    TMP DP  RH WIND       PRES   REMARKS
LA GUARDIA NY  MOCLDY    76  64  66 SW7       30.13S                  
RALEIGH NC     LGT RAIN  70  67  90 CALM      30.17S                  
ATLANTA GA     LGT RAIN  67  65  93 NE12      30.09F                  
NEW ORLEANS LA MOCLDY    80  70  71 SE7       30.01R                  
OKLAHOMA CITY  PTCLDY    70  65  84 NE3       30.09R                  
ALBUQUERQUE NM CLOUDY    65  54  67 E20       30.26R                  
SALT LAKE CITY MOCLDY    76  55  48 N5        30.11S                  
LOS ANGELES CA PTCLDY    68  62  81 SW10      29.89R                  
BOISE ID       PTCLDY    81  47  30 E14G28    30.04F                  
SEATTLE WA     PTCLDY    77  47  34 N9        30.04R                  
$$

*** WEATHER ACROSS MANITOBA...SASKATCHEWAN AND ONTARIO ***
                ***ONTARIO***
  
CITY           SKY/WX    TMP DP  RH WIND       PRES   REMARKS
GERALDTON      CLOUDY    54  52  94 NW3       29.98                   
THUNDER BAY    PTCLDY    61  55  82 E6        29.98R                  
SIOUX LOOKOUT  CLEAR     54  54 100 E2        30.00R                  
TORONTO        MOCLDY    66  55  68 SW7       30.05S                  
BIG TROUT LK   CLOUDY    55  48  76 E3        30.01R                  
PICKLE LAKE    NOT AVBL                                               
DRYDEN         NOT AVBL                                               
KENORA         MOCLDY    66  55  68 NE5       30.01S                  
$$      
                *** MANITOBA***
  
CITY           SKY/WX    TMP DP  RH WIND       PRES   REMARKS
BRANDON        CLEAR     64  59  82 NE2       30.06R                  
DAUPHIN        CLEAR     63  61  94 CALM      30.03R                  
ISLAND LAKE    PTCLDY    61  52  72 N3        30.04R                  
PILOT MOUND      N/A     66  57  72 NE6         N/A                   
THE PAS        CLOUDY    64  61  88 SE5       29.99F                  
THOMPSON       MOCLDY    63  57  82 SE3       30.00R                  
WINNIPEG       PTCLDY    63  57  82 NW6       30.02R                  
LYNN LAKE      PTCLDY    66  63  88 CALM      29.99F                  
CHURCHILL      CLEAR     57  54  88 SE12      30.01F                  
GILLAM         CLOUDY    59  52  77 SE3       30.03S                  
$$
                ***SASKATCHEWAN***
  
CITY           SKY/WX    TMP DP  RH WIND       PRES   REMARKS
ESTEVAN        PTCLDY    64  61  88 E7        30.06S                  
KINDERSLEY     MOCLDY    66  63  88 NE8       30.08R                  
LLOYDMINSTER   CLEAR     70  61  73 CALM      30.10R                  
PRINCE ALBERT  MOCLDY    63  61  94 SW3       30.05S                  
REGINA         PTCLDY    70  61  73 E7        30.05S                  

Return to Home page


Western Regional Climate Center, wrcc@dri.edu